Jamestown, NY

8:35 AM EST on December 15, 2019 (GMT -0500)
Chautauqua County-Jamestown

Weather History for KJHW - October, 2019

Change the Weather History Date:

Wednesday, October 16, 2019

  Actual Average Record
Temperature  
Mean Temperature 50 °F -  
Max Temperature 55 °F 61 °F 83 °F (1989)
Min Temperature 44 °F 37 °F 24 °F (1987)
Degree Days  
Heating Degree Days 16    
Moisture  
Dew Point 45 °F    
Average Humidity 87    
Maximum Humidity 100    
Minimum Humidity 62    
Precipitation  
Precipitation 0.87 in - - ()
Sea Level Pressure  
Sea Level Pressure 29.64 in    
Wind  
Wind Speed 9 mph (SSW)    
Max Wind Speed 15 mph    
Max Gust Speed 23 mph    
Visibility 9 miles    
Events Rain , Thunderstorm    
Averages and records for this station are not official NWS values.
T = Trace of Precipitation, MM = Missing Value Source: NWS Daily Summary

Daily Weather History Graph

Daily Weather History Graph

Search for Another Location

Airport or City:

Astronomy

Oct. 16, 2019 Rise Set
Actual Time 7:30 AM EDT 6:34 PM EDT
Civil Twilight 7:02 AM EDT 7:02 PM EDT
Nautical Twilight 6:29 AM EDT 7:34 PM EDT
Astronomical Twilight 5:57 AM EDT 8:07 PM EDT
Moon 8:23 PM EDT (10/16) 10:01 AM EDT (10/16)
Length of Visible Light 11h 59m
Length of Day
11h 03m
Waning Gibbous, 93% of the Moon is Illuminated
Oct 16
Waning Gibbous
Oct 21
Last Quarter
Oct 27
New
Nov 4
First Quarter
Nov 12
Full

Hourly Weather History & Observations

Time (EDT) Temp. Windchill Dew Point Humidity Pressure Visibility Wind Dir Wind Speed Gust Speed Precip Events Conditions
12:56 AM 51.1 °F - 41.0 °F 68% 29.85 in 10.0 mi South 9.2 mph - N/A   Partly Cloudy
1:56 AM 52.0 °F - 41.0 °F 66% 29.81 in 10.0 mi South 5.8 mph - N/A   Overcast
2:56 AM 52.0 °F - 41.0 °F 66% 29.78 in 10.0 mi South 6.9 mph - N/A   Scattered Clouds
3:56 AM 53.1 °F - 41.0 °F 64% 29.75 in 10.0 mi South 8.1 mph - N/A   Overcast
4:41 AM 53.6 °F - 41.0 °F 62% 29.70 in 10.0 mi SSE 8.1 mph - N/A   Overcast
4:56 AM 54.0 °F - 41.0 °F 62% 29.71 in 10.0 mi South 6.9 mph - N/A   Mostly Cloudy
5:56 AM 55.0 °F - 42.1 °F 62% 29.68 in 10.0 mi South 12.7 mph - N/A   Overcast
6:56 AM 55.0 °F - 42.1 °F 62% 29.64 in 10.0 mi South 10.4 mph 19.6 mph N/A   Overcast
7:42 AM 51.8 °F - 46.4 °F 82% 29.62 in 6.0 mi South 11.5 mph - 0.09 in Rain , Thunderstorm Heavy Thunderstorms and Rain
7:56 AM 50.0 °F - 46.9 °F 89% 29.64 in 7.0 mi South 10.4 mph - 0.14 in Rain , Thunderstorm Heavy Thunderstorms and Rain
8:00 AM 51.8 °F - 46.4 °F 82% 29.62 in 7.0 mi SSW 10.4 mph - 0.01 in Rain , Thunderstorm Light Thunderstorms and Rain
8:07 AM 50.0 °F - 48.2 °F 94% 29.62 in 8.0 mi South 9.2 mph - 0.01 in Rain Light Rain
8:56 AM 50.0 °F - 48.0 °F 93% 29.64 in 7.0 mi Variable 3.5 mph - 0.10 in Rain Light Rain
9:07 AM 50.0 °F - 48.2 °F 94% 29.64 in 8.0 mi WNW 10.4 mph - 0.03 in Rain Rain
9:20 AM 50.0 °F - 48.2 °F 94% 29.63 in 7.0 mi WSW 11.5 mph - 0.09 in Rain Rain
9:42 AM 50.0 °F - 48.2 °F 94% 29.63 in 7.0 mi SW 8.1 mph - 0.19 in Rain Rain
9:56 AM 48.0 °F - 46.0 °F 93% 29.65 in 9.0 mi West 15.0 mph 21.9 mph 0.25 in Rain Rain
10:03 AM 48.2 °F - 46.4 °F 93% 29.62 in 10.0 mi West 12.7 mph - 0.03 in Rain Rain
10:16 AM 46.4 °F 40.1 °F 46.4 °F 100% 29.62 in 10.0 mi WNW 15.0 mph - 0.06 in Rain Rain
10:27 AM 46.4 °F 40.4 °F 44.6 °F 93% 29.62 in 10.0 mi West 13.8 mph - 0.07 in Rain Light Rain
10:40 AM 46.4 °F 40.4 °F 46.4 °F 100% 29.63 in 9.0 mi West 13.8 mph - 0.09 in Rain Rain
10:56 AM 46.9 °F - 46.0 °F 97% 29.67 in 7.0 mi West 8.1 mph - 0.12 in Rain Rain
11:30 AM 46.4 °F 43.5 °F 46.4 °F 100% 29.65 in 10.0 mi West 5.8 mph - 0.06 in Rain Rain
11:45 AM 46.4 °F 42.4 °F 44.6 °F 93% 29.64 in 10.0 mi SW 8.1 mph - 0.08 in Rain Rain
11:54 AM 46.4 °F 40.1 °F 44.6 °F 93% 29.64 in 8.0 mi WSW 15.0 mph 21.9 mph 0.10 in Rain Rain
11:56 AM 46.9 °F - 44.1 °F 90% 29.67 in 8.0 mi SW 11.5 mph 21.9 mph 0.10 in Rain Rain
12:41 PM 44.6 °F 39.2 °F 42.8 °F 93% 29.63 in 10.0 mi South 10.4 mph - 0.10 in Rain Light Rain
12:49 PM 44.6 °F 40.7 °F 42.8 °F 93% 29.63 in 10.0 mi South 6.9 mph - 0.10 in Rain Light Rain
12:56 PM 45.0 °F 41.8 °F 43.0 °F 93% 29.65 in 10.0 mi South 5.8 mph - 0.10 in Rain Light Rain
1:31 PM 44.6 °F 40.2 °F 44.6 °F 100% 29.60 in 9.0 mi South 8.1 mph - 0.03 in Rain Light Rain
1:54 PM 44.6 °F 40.7 °F 44.6 °F 100% 29.58 in 10.0 mi SSE 6.9 mph - 0.04 in Rain Light Rain
1:55 PM 45.0 °F 41.2 °F 44.1 °F 97% 29.60 in 10.0 mi SSE 6.9 mph - 0.04 in Rain Light Rain
2:01 PM 44.6 °F 40.2 °F 44.6 °F 100% 29.58 in 10.0 mi South 8.1 mph - 0.01 in Rain Light Rain
2:29 PM 46.4 °F 41.1 °F 44.6 °F 93% 29.58 in 10.0 mi South 11.5 mph - 0.01 in   Overcast
2:52 PM 46.4 °F 42.4 °F 44.6 °F 93% 29.55 in 10.0 mi SW 8.1 mph - 0.01 in   Overcast
2:56 PM 46.9 °F - 45.0 °F 93% 29.57 in 10.0 mi SSW 5.8 mph - 0.01 in   Overcast
3:03 PM 46.4 °F 41.9 °F 44.6 °F 93% 29.56 in 10.0 mi SSW 9.2 mph - N/A   Overcast
3:56 PM 46.0 °F 39.6 °F 42.1 °F 86% 29.58 in 8.0 mi WSW 15.0 mph 23.0 mph 0.01 in Rain Light Rain